QPF
0.02 0.03 0.03 0.05 0.07 0.07 0.09 0.12 0.13 0.11 0.09 0.07 0.05 0.04 0.03 0.03 0.03 0.03 0.04 0.06 0.09 0.12 0.12 0.13 0.12 0.11 0.10 0.10 0.08 0.06 0.04 0.03 0.03 0.01 0.00 0.00 0.00 0.00 0.00 0.00 0.00 0.01 0.01
0.04 0.04 0.04 0.04 0.06 0.10 0.12 0.19 0.22 0.20 0.20 0.19 0.17 0.14 0.11 0.08 0.06 0.06 0.07 0.08 0.12 0.14 0.14 0.15 0.16 0.16 0.13 0.11 0.10 0.08 0.04 0.03 0.04 0.04 0.02 0.00 0.00 0.00 0.00 0.00 0.00 0.01 0.02
0.08 0.08 0.08 0.08 0.09 0.11 0.14 0.19 0.22 0.20 0.20 0.25 0.31 0.29 0.24 0.18 0.15 0.14 0.14 0.14 0.14 0.14 0.13 0.16 0.19 0.19 0.15 0.12 0.12 0.12 0.08 0.04 0.03 0.05 0.04 0.02 0.00 0.00 0.00 0.00 0.01 0.01 0.02
0.08 0.08 0.08 0.09 0.12 0.14 0.15 0.16 0.19 0.22 0.28 0.38 0.45 0.46 0.43 0.37 0.31 0.28 0.23 0.20 0.18 0.20 0.22 0.21 0.18 0.17 0.16 0.13 0.13 0.12 0.08 0.04 0.02 0.03 0.04 0.05 0.04 0.03 0.01 0.01 0.02 0.01 0.01
0.07 0.07 0.08 0.12 0.16 0.16 0.17 0.19 0.22 0.25 0.31 0.38 0.46 0.51 0.49 0.45 0.38 0.35 0.31 0.28 0.29 0.28 0.24 0.19 0.16 0.13 0.12 0.10 0.08 0.07 0.05 0.04 0.03 0.02 0.03 0.05 0.06 0.07 0.05 0.01 0.01 0.01 0.01
0.06 0.08 0.09 0.14 0.21 0.25 0.27 0.30 0.32 0.32 0.35 0.39 0.44 0.44 0.42 0.41 0.40 0.38 0.34 0.31 0.31 0.27 0.22 0.15 0.13 0.10 0.07 0.05 0.05 0.05 0.03 0.02 0.02 0.03 0.04 0.05 0.06 0.07 0.07 0.04 0.02 0.02 0.02
0.06 0.08 0.10 0.13 0.18 0.25 0.29 0.31 0.34 0.37 0.37 0.35 0.37 0.37 0.37 0.34 0.33 0.34 0.31 0.27 0.26 0.20 0.15 0.13 0.10 0.08 0.05 0.04 0.03 0.02 0.02 0.02 0.03 0.04 0.05 0.07 0.08 0.09 0.09 0.07 0.04 0.03 0.02
0.07 0.08 0.09 0.10 0.13 0.19 0.24 0.28 0.30 0.32 0.34 0.35 0.35 0.33 0.32 0.30 0.27 0.26 0.23 0.20 0.18 0.13 0.11 0.09 0.06 0.05 0.04 0.03 0.02 0.01 0.01 0.01 0.01 0.02 0.03 0.04 0.05 0.07 0.08 0.09 0.08 0.05 0.04
0.05 0.06 0.07 0.07 0.11 0.17 0.23 0.28 0.30 0.29 0.30 0.30 0.30 0.30 0.28 0.26 0.24 0.21 0.16 0.13 0.10 0.07 0.06 0.05 0.03 0.02 0.01 0.01 0.00 0.00 0.00 0.00 0.00 0.01 0.01 0.02 0.03 0.04 0.06 0.07 0.08 0.08 0.05
0.04 0.04 0.05 0.07 0.09 0.14 0.19 0.25 0.30 0.33 0.35 0.32 0.29 0.27 0.24 0.22 0.18 0.12 0.09 0.08 0.06 0.04 0.03 0.02 0.01 0.01 0.00 0.00 0.00 0.00 0.00 0.00 0.00 0.00 0.01 0.01 0.01 0.02 0.03 0.04 0.04 0.05 0.05
0.04 0.06 0.07 0.09 0.12 0.16 0.20 0.23 0.27 0.29 0.28 0.26 0.24 0.18 0.14 0.11 0.08 0.05 0.05 0.04 0.03 0.01 0.00 0.00 0.00 0.00 0.00 0.00 0.00 0.00 0.00 0.00 0.00 0.00 0.00 0.00 0.00 0.00 0.01 0.01 0.01 0.02 0.03
0.05 0.07 0.09 0.11 0.13 0.16 0.17 0.18 0.21 0.22 0.20 0.16 0.12 0.09 0.07 0.04 0.03 0.02 0.01 0.01 0.01 0.00 0.00 0.00 0.00 0.00 0.00 0.00 0.00 0.00 0.00 0.00 0.00 0.00 0.00 0.00 0.00 0.00 0.00 0.00 0.00 0.00 0.01
0.07 0.08 0.10 0.12 0.13 0.15 0.15 0.16 0.16 0.16 0.14 0.12 0.09 0.06 0.05 0.03 0.02 0.01 0.00 0.00 0.00 0.00 0.00 0.00 0.00 0.00 0.00 0.00 0.00 0.00 0.00 0.00 0.00 0.00 0.00 0.00 0.00 0.00 0.00 0.00 0.00 0.00 0.00
0.10 0.14 0.16 0.17 0.20 0.21 0.17 0.14 0.13 0.12 0.10 0.08 0.07 0.05 0.04 0.03 0.01 0.00 0.00 0.00 0.00 0.00 0.00 0.00 0.00 0.00 0.00 0.00 0.00 0.00 0.00 0.00 0.00 0.00 0.00 0.00 0.00 0.00 0.00 0.00 0.00 0.00 0.00
0.11 0.12 0.15 0.17 0.19 0.21 0.18 0.14 0.11 0.10 0.10 0.09 0.08 0.06 0.04 0.02 0.01 0.01 0.00 0.00 0.00 0.00 0.00 0.00 0.00 0.00 0.00 0.00 0.00 0.00 0.00 0.00 0.00 0.00 0.00 0.00 0.00 0.00 0.00 0.00 0.00 0.00 0.00
0.11 0.12 0.15 0.15 0.13 0.12 0.11 0.10 0.11 0.10 0.10 0.09 0.09 0.07 0.05 0.03 0.02 0.01 0.00 0.00 0.00 0.00 0.00 0.00 0.00 0.00 0.00 0.00 0.00 0.00 0.00 0.00 0.00 0.00 0.00 0.00 0.00 0.00 0.00 0.00 0.00 0.00 0.00
0.06 0.06 0.06 0.08 0.08 0.08 0.07 0.06 0.07 0.08 0.09 0.11 0.12 0.11 0.07 0.04 0.03 0.01 0.01 0.00 0.00 0.00 0.00 0.00 0.00 0.00 0.00 0.00 0.00 0.00 0.00 0.00 0.00 0.00 0.00 0.00 0.00 0.00 0.00 0.00 0.00 0.00 0.00
0.03 0.03 0.03 0.02 0.02 0.03 0.04 0.04 0.05 0.06 0.07 0.09 0.11 0.11 0.07 0.04 0.02 0.02 0.01 0.00 0.00 0.00 0.00 0.00 0.00 0.00 0.00 0.00 0.00 0.00 0.00 0.00 0.00 0.00 0.00 0.00 0.00 0.00 0.00 0.00 0.00 0.00 0.00
0.01 0.01 0.01 0.00 0.00 0.00 0.01 0.02 0.04 0.04 0.05 0.05 0.06 0.05 0.04 0.03 0.02 0.01 0.01 0.00 0.00 0.00 0.00 0.00 0.00 0.00 0.00 0.00 0.00 0.00 0.00 0.00 0.00 0.00 0.00 0.00 0.00 0.00 0.00 0.00 0.00 0.00 0.00
0.00 0.00 0.00 0.00 0.00 0.00 0.00 0.01 0.02 0.03 0.03 0.04 0.04 0.03 0.02 0.01 0.00 0.00 0.00 0.00 0.00 0.00 0.00 0.00 0.00 0.00 0.00 0.00 0.00 0.00 0.00 0.00 0.00 0.00 0.00 0.00 0.00 0.00 0.00 0.00 0.00 0.00 0.00
0.00 0.00 0.00 0.00 0.00 0.00 0.00 0.01 0.02 0.02 0.02 0.03 0.02 0.01 0.01 0.00 0.00 0.00 0.00 0.00 0.00 0.00 0.00 0.00 0.00 0.00 0.00 0.00 0.00 0.00 0.00 0.00 0.00 0.00 0.00 0.00 0.00 0.00 0.00 0.00 0.00 0.00 0.00
0.00 0.00 0.00 0.00 0.00 0.00 0.00 0.00 0.00 0.01 0.02 0.02 0.01 0.01 0.00 0.00 0.00 0.00 0.00 0.00 0.00 0.00 0.00 0.00 0.00 0.00 0.00 0.00 0.00 0.00 0.00 0.00 0.00 0.00 0.00 0.00 0.00 0.00 0.00 0.00 0.00 0.00 0.00
0.00 0.00 0.00 0.00 0.00 0.00 0.00 0.00 0.01 0.01 0.01 0.01 0.00 0.00 0.00 0.00 0.00 0.00 0.00 0.00 0.00 0.00 0.00 0.00 0.00 0.00 0.00 0.00 0.00 0.00 0.00 0.00 0.00 0.00 0.00 0.00 0.00 0.00 0.00 0.00 0.00 0.00 0.00
0.00 0.00 0.00 0.00 0.00 0.00 0.00 0.00 0.00 0.00 0.00 0.00 0.00 0.00 0.00 0.00 0.00 0.00 0.00 0.00 0.00 0.00 0.00 0.00 0.00 0.00 0.00 0.00 0.00 0.00 0.00 0.00 0.00 0.00 0.00 0.01 0.01 0.01 0.01 0.00 0.00 0.00 0.00
0.00 0.00 0.00 0.00 0.00 0.00 0.00 0.00 0.00 0.00 0.00 0.00 0.00 0.00 0.00 0.00 0.00 0.00 0.00 0.00 0.00 0.00 0.00 0.00 0.00 0.00 0.00 0.00 0.00 0.00 0.00 0.00 0.00 0.00 0.00 0.00 0.00 0.01 0.01 0.01 0.01 0.00 0.00
0.00 0.00 0.00 0.00 0.00 0.00 0.00 0.00 0.00 0.00 0.00 0.00 0.00 0.00 0.00 0.00 0.00 0.00 0.00 0.00 0.00 0.00 0.00 0.00 0.00 0.00 0.00 0.00 0.00 0.00 0.00 0.00 0.00 0.00 0.00 0.00 0.00 0.00 0.01 0.01 0.01 0.01 0.01
MSLP
1009.89 1009.88 1009.87 1009.86 1009.84 1009.85 1009.90 1010.01 1010.20 1010.47 1010.81 1011.17 1011.54 1011.86 1012.13 1012.31 1012.41 1012.45 1012.46 1012.48 1012.53 1012.64 1012.84 1013.11 1013.46 1013.84 1014.24 1014.62 1014.94 1015.19 1015.34 1015.38 1015.32 1015.17 1014.93 1014.64 1014.29 1013.91 1013.52 1013.11 1012.72 1012.34 1011.99
1010.27 1010.21 1010.13 1010.04 1009.93 1009.83 1009.78 1009.80 1009.93 1010.16 1010.48 1010.85 1011.23 1011.58 1011.85 1012.03 1012.11 1012.11 1012.07 1012.03 1012.04 1012.13 1012.32 1012.62 1013.00 1013.44 1013.90 1014.33 1014.70 1014.99 1015.17 1015.24 1015.21 1015.09 1014.89 1014.63 1014.33 1013.99 1013.61 1013.22 1012.81 1012.40 1012.01
1010.72 1010.63 1010.51 1010.35 1010.16 1009.97 1009.82 1009.75 1009.79 1009.96 1010.24 1010.60 1010.98 1011.33 1011.61 1011.79 1011.85 1011.83 1011.76 1011.69 1011.67 1011.73 1011.92 1012.22 1012.63 1013.09 1013.58 1014.05 1014.45 1014.77 1014.98 1015.08 1015.09 1015.02 1014.88 1014.69 1014.45 1014.16 1013.82 1013.44 1013.03 1012.60 1012.15
1011.16 1011.05 1010.92 1010.72 1010.47 1010.20 1009.95 1009.79 1009.74 1009.83 1010.05 1010.37 1010.73 1011.08 1011.36 1011.55 1011.62 1011.60 1011.52 1011.44 1011.41 1011.47 1011.65 1011.95 1012.36 1012.83 1013.32 1013.79 1014.21 1014.54 1014.77 1014.91 1014.97 1014.96 1014.89 1014.77 1014.61 1014.39 1014.10 1013.75 1013.33 1012.87 1012.37
1011.51 1011.41 1011.27 1011.05 1010.76 1010.43 1010.10 1009.84 1009.70 1009.70 1009.84 1010.11 1010.44 1010.78 1011.07 1011.28 1011.38 1011.39 1011.35 1011.29 1011.28 1011.35 1011.53 1011.82 1012.21 1012.67 1013.14 1013.59 1013.99 1014.32 1014.56 1014.73 1014.83 1014.89 1014.89 1014.86 1014.77 1014.62 1014.39 1014.06 1013.64 1013.15 1012.60
1011.74 1011.66 1011.52 1011.30 1010.98 1010.59 1010.19 1009.84 1009.60 1009.51 1009.58 1009.78 1010.08 1010.41 1010.73 1010.97 1011.13 1011.21 1011.23 1011.23 1011.26 1011.36 1011.54 1011.83 1012.20 1012.61 1013.04 1013.45 1013.81 1014.11 1014.35 1014.54 1014.68 1014.78 1014.86 1014.90 1014.89 1014.81 1014.62 1014.32 1013.90 1013.38 1012.79
1011.84 1011.77 1011.64 1011.41 1011.07 1010.65 1010.19 1009.76 1009.44 1009.26 1009.25 1009.40 1009.67 1010.01 1010.35 1010.66 1010.90 1011.07 1011.17 1011.26 1011.35 1011.49 1011.69 1011.97 1012.30 1012.66 1013.03 1013.37 1013.68 1013.94 1014.15 1014.33 1014.50 1014.64 1014.78 1014.88 1014.93 1014.90 1014.75 1014.48 1014.06 1013.53 1012.90
1011.83 1011.77 1011.64 1011.42 1011.07 1010.61 1010.11 1009.63 1009.24 1008.99 1008.93 1009.03 1009.28 1009.63 1010.02 1010.39 1010.72 1010.99 1011.20 1011.38 1011.55 1011.74 1011.96 1012.22 1012.50 1012.81 1013.10 1013.37 1013.60 1013.80 1013.98 1014.14 1014.30 1014.47 1014.64 1014.79 1014.88 1014.89 1014.78 1014.52 1014.11 1013.57 1012.92
1011.77 1011.70 1011.58 1011.35 1011.00 1010.54 1010.01 1009.50 1009.07 1008.78 1008.68 1008.76 1009.00 1009.36 1009.79 1010.24 1010.65 1011.02 1011.34 1011.61 1011.85 1012.08 1012.32 1012.56 1012.80 1013.04 1013.25 1013.44 1013.59 1013.73 1013.85 1013.98 1014.13 1014.30 1014.48 1014.64 1014.76 1014.80 1014.71 1014.47 1014.07 1013.53 1012.87
1011.68 1011.61 1011.50 1011.28 1010.93 1010.48 1009.96 1009.44 1009.00 1008.71 1008.59 1008.66 1008.91 1009.29 1009.75 1010.25 1010.74 1011.19 1011.59 1011.94 1012.24 1012.51 1012.75 1012.97 1013.17 1013.35 1013.49 1013.59 1013.67 1013.73 1013.80 1013.89 1014.01 1014.16 1014.33 1014.50 1014.63 1014.67 1014.59 1014.37 1013.98 1013.46 1012.81
1011.62 1011.56 1011.45 1011.24 1010.92 1010.49 1010.00 1009.51 1009.10 1008.83 1008.72 1008.81 1009.06 1009.46 1009.94 1010.47 1011.00 1011.50 1011.95 1012.34 1012.68 1012.97 1013.22 1013.43 1013.59 1013.71 1013.79 1013.83 1013.84 1013.84 1013.86 1013.90 1013.98 1014.11 1014.26 1014.41 1014.53 1014.57 1014.50 1014.28 1013.92 1013.41 1012.79
1011.59 1011.54 1011.44 1011.26 1010.97 1010.58 1010.15 1009.72 1009.37 1009.14 1009.07 1009.18 1009.44 1009.84 1010.33 1010.86 1011.40 1011.91 1012.38 1012.79 1013.15 1013.45 1013.70 1013.89 1014.03 1014.11 1014.15 1014.14 1014.11 1014.06 1014.03 1014.03 1014.08 1014.17 1014.29 1014.42 1014.51 1014.54 1014.47 1014.26 1013.91 1013.42 1012.83
1011.58 1011.55 1011.47 1011.31 1011.06 1010.73 1010.37 1010.02 1009.75 1009.59 1009.57 1009.71 1009.98 1010.37 1010.84 1011.35 1011.87 1012.36 1012.82 1013.23 1013.58 1013.88 1014.13 1014.32 1014.45 1014.52 1014.54 1014.51 1014.45 1014.38 1014.32 1014.29 1014.30 1014.35 1014.44 1014.53 1014.60 1014.60 1014.52 1014.31 1013.97 1013.51 1012.95
1011.57 1011.55 1011.48 1011.34 1011.14 1010.87 1010.60 1010.34 1010.16 1010.08 1010.12 1010.28 1010.57 1010.94 1011.38 1011.85 1012.32 1012.78 1013.21 1013.60 1013.95 1014.25 1014.50 1014.70 1014.85 1014.93 1014.95 1014.92 1014.86 1014.78 1014.70 1014.64 1014.62 1014.64 1014.68 1014.73 1014.76 1014.74 1014.63 1014.42 1014.09 1013.65 1013.11
1011.52 1011.50 1011.44 1011.32 1011.15 1010.95 1010.75 1010.59 1010.50 1010.50 1010.60 1010.80 1011.09 1011.45 1011.85 1012.27 1012.69 1013.11 1013.50 1013.88 1014.22 1014.53 1014.81 1015.03 1015.20 1015.31 1015.36 1015.35 1015.29 1015.21 1015.13 1015.05 1015.00 1014.98 1014.98 1014.98 1014.97 1014.91 1014.78 1014.56 1014.23 1013.80 1013.28
1011.41 1011.38 1011.31 1011.20 1011.06 1010.91 1010.79 1010.71 1010.70 1010.77 1010.93 1011.17 1011.46 1011.81 1012.17 1012.56 1012.94 1013.33 1013.70 1014.06 1014.42 1014.75 1015.05 1015.31 1015.52 1015.67 1015.75 1015.76 1015.73 1015.65 1015.56 1015.47 1015.39 1015.33 1015.28 1015.24 1015.18 1015.09 1014.93 1014.68 1014.35 1013.92 1013.42
1011.24 1011.19 1011.10 1010.99 1010.86 1010.76 1010.69 1010.68 1010.74 1010.87 1011.08 1011.35 1011.66 1011.99 1012.35 1012.71 1013.08 1013.44 1013.82 1014.19 1014.56 1014.93 1015.27 1015.57 1015.82 1016.01 1016.12 1016.16 1016.14 1016.07 1015.97 1015.86 1015.75 1015.65 1015.56 1015.47 1015.37 1015.23 1015.04 1014.77 1014.43 1014.01 1013.51
1011.01 1010.94 1010.83 1010.71 1010.59 1010.51 1010.48 1010.52 1010.64 1010.83 1011.07 1011.37 1011.69 1012.04 1012.40 1012.76 1013.13 1013.51 1013.90 1014.31 1014.72 1015.12 1015.50 1015.85 1016.13 1016.35 1016.49 1016.54 1016.53 1016.46 1016.35 1016.22 1016.08 1015.95 1015.82 1015.68 1015.53 1015.35 1015.12 1014.84 1014.48 1014.06 1013.57
1010.76 1010.67 1010.55 1010.42 1010.31 1010.25 1010.25 1010.33 1010.48 1010.70 1010.98 1011.30 1011.65 1012.01 1012.39 1012.78 1013.17 1013.59 1014.02 1014.47 1014.92 1015.36 1015.78 1016.16 1016.47 1016.70 1016.84 1016.91 1016.89 1016.82 1016.70 1016.55 1016.39 1016.22 1016.05 1015.88 1015.69 1015.47 1015.22 1014.91 1014.54 1014.11 1013.63
1010.48 1010.39 1010.28 1010.16 1010.07 1010.03 1010.06 1010.16 1010.34 1010.59 1010.89 1011.23 1011.60 1011.99 1012.40 1012.82 1013.26 1013.72 1014.20 1014.70 1015.19 1015.67 1016.11 1016.50 1016.82 1017.05 1017.19 1017.25 1017.23 1017.15 1017.02 1016.86 1016.68 1016.50 1016.31 1016.10 1015.88 1015.64 1015.35 1015.02 1014.65 1014.22 1013.75
1010.18 1010.13 1010.05 1009.97 1009.92 1009.91 1009.97 1010.09 1010.29 1010.55 1010.87 1011.22 1011.61 1012.03 1012.47 1012.93 1013.42 1013.93 1014.45 1014.98 1015.51 1016.00 1016.46 1016.85 1017.16 1017.38 1017.51 1017.56 1017.53 1017.45 1017.32 1017.16 1016.99 1016.80 1016.60 1016.38 1016.14 1015.87 1015.57 1015.22 1014.84 1014.41 1013.95
1009.83 1009.85 1009.84 1009.83 1009.84 1009.88 1009.98 1010.13 1010.34 1010.62 1010.94 1011.30 1011.70 1012.14 1012.60 1013.10 1013.63 1014.17 1014.73 1015.28 1015.82 1016.32 1016.77 1017.14 1017.43 1017.64 1017.76 1017.80 1017.78 1017.70 1017.59 1017.46 1017.30 1017.12 1016.93 1016.71 1016.47 1016.19 1015.87 1015.51 1015.12 1014.70 1014.25
1009.41 1009.52 1009.61 1009.69 1009.78 1009.90 1010.05 1010.24 1010.47 1010.75 1011.08 1011.44 1011.85 1012.29 1012.77 1013.29 1013.84 1014.40 1014.97 1015.53 1016.06 1016.55 1016.97 1017.32 1017.59 1017.78 1017.89 1017.93 1017.93 1017.88 1017.81 1017.71 1017.59 1017.45 1017.28 1017.08 1016.84 1016.55 1016.23 1015.87 1015.47 1015.05 1014.61
1008.86 1009.09 1009.30 1009.50 1009.69 1009.89 1010.11 1010.34 1010.61 1010.90 1011.23 1011.59 1012.00 1012.44 1012.92 1013.44 1013.99 1014.55 1015.11 1015.65 1016.17 1016.62 1017.02 1017.34 1017.58 1017.75 1017.87 1017.93 1017.95 1017.95 1017.92 1017.88 1017.81 1017.72 1017.59 1017.41 1017.19 1016.91 1016.59 1016.23 1015.84 1015.42 1015.00
1008.17 1008.52 1008.85 1009.17 1009.47 1009.77 1010.07 1010.36 1010.66 1010.98 1011.32 1011.68 1012.08 1012.52 1012.99 1013.49 1014.02 1014.56 1015.09 1015.61 1016.08 1016.50 1016.86 1017.15 1017.38 1017.55 1017.67 1017.76 1017.82 1017.87 1017.91 1017.92 1017.92 1017.88 1017.79 1017.65 1017.45 1017.20 1016.89 1016.53 1016.15 1015.75 1015.35
1007.33 1007.78 1008.22 1008.65 1009.07 1009.47 1009.85 1010.21 1010.57 1010.92 1011.28 1011.65 1012.04 1012.47 1012.92 1013.40 1013.90 1014.41 1014.90 1015.38 1015.81 1016.19 1016.51 1016.78 1016.99 1017.16 1017.30 1017.42 1017.53 1017.63 1017.73 1017.81 1017.86 1017.87 1017.84 1017.74 1017.57 1017.34 1017.05 1016.72 1016.37 1015.99 1015.62
Thickness
5784 5785 5787 5788 5787 5786 5784 5782 5779 5777 5774 5771 5767 5763 5763 5763 5762 5763 5763 5763 5761 5759 5757 5755 5752 5748 5745 5743 5741 5738 5735 5733 5732 5730 5731 5735 5737 5737 5738 5738 5738 5738 5738
5771 5772 5774 5775 5776 5775 5775 5774 5772 5770 5767 5765 5762 5757 5756 5756 5756 5756 5756 5756 5756 5755 5753 5750 5747 5744 5740 5737 5735 5731 5728 5727 5725 5722 5719 5720 5725 5729 5732 5731 5731 5732 5732
5759 5760 5762 5764 5765 5765 5765 5767 5764 5762 5760 5756 5752 5751 5748 5747 5747 5747 5748 5749 5749 5749 5747 5745 5742 5738 5735 5731 5729 5726 5722 5719 5718 5716 5711 5707 5709 5714 5722 5722 5723 5723 5723
5749 5751 5752 5752 5754 5755 5758 5758 5757 5756 5754 5750 5746 5742 5740 5737 5739 5740 5740 5740 5741 5740 5738 5737 5735 5732 5729 5726 5723 5721 5717 5714 5711 5709 5707 5705 5704 5702 5707 5712 5713 5715 5715
5738 5740 5742 5744 5745 5747 5748 5749 5749 5748 5748 5745 5742 5736 5734 5734 5734 5733 5731 5731 5731 5731 5730 5729 5727 5725 5722 5720 5717 5714 5711 5708 5705 5702 5700 5698 5697 5695 5694 5698 5703 5705 5707
5728 5730 5732 5735 5736 5738 5738 5739 5739 5740 5739 5737 5735 5731 5729 5728 5726 5724 5723 5722 5722 5721 5721 5720 5719 5717 5715 5712 5709 5706 5704 5701 5699 5696 5693 5691 5689 5688 5686 5688 5692 5694 5698
5717 5718 5720 5722 5723 5724 5726 5727 5728 5728 5729 5729 5728 5727 5725 5723 5720 5718 5716 5714 5712 5711 5711 5710 5709 5708 5706 5704 5700 5698 5695 5693 5691 5688 5686 5685 5683 5682 5681 5680 5682 5685 5690
5705 5707 5709 5710 5711 5712 5713 5714 5715 5716 5717 5718 5719 5718 5717 5716 5713 5711 5709 5707 5705 5703 5702 5701 5700 5698 5696 5693 5691 5688 5686 5685 5682 5681 5680 5678 5677 5676 5675 5674 5673 5675 5679
5694 5695 5696 5696 5697 5697 5698 5699 5701 5702 5703 5704 5705 5704 5704 5705 5703 5700 5699 5697 5695 5693 5691 5691 5689 5688 5686 5684 5682 5679 5677 5675 5674 5673 5672 5671 5670 5669 5668 5667 5667 5665 5667
5683 5683 5683 5683 5682 5682 5683 5684 5685 5685 5687 5688 5689 5689 5689 5690 5689 5688 5685 5683 5682 5681 5681 5680 5679 5677 5675 5674 5672 5670 5668 5667 5665 5664 5663 5662 5661 5660 5660 5659 5659 5660 5659
5673 5671 5670 5669 5668 5668 5667 5667 5668 5669 5670 5671 5671 5672 5672 5674 5674 5674 5672 5670 5669 5670 5670 5669 5668 5666 5664 5663 5662 5660 5658 5657 5655 5655 5654 5652 5652 5651 5651 5651 5651 5652 5653
5664 5660 5658 5656 5654 5652 5652 5652 5653 5653 5654 5655 5655 5655 5657 5659 5660 5660 5659 5659 5658 5658 5657 5657 5656 5655 5653 5652 5652 5650 5648 5646 5645 5644 5643 5642 5642 5641 5641 5641 5642 5643 5644
5654 5650 5647 5643 5641 5640 5640 5639 5640 5641 5641 5641 5641 5642 5643 5645 5645 5646 5646 5646 5646 5645 5645 5645 5644 5643 5642 5641 5640 5639 5637 5636 5634 5633 5632 5630 5630 5630 5631 5632 5633 5634 5637
5645 5641 5637 5634 5632 5630 5629 5628 5629 5630 5631 5631 5630 5630 5630 5632 5633 5634 5634 5634 5635 5635 5634 5633 5632 5631 5631 5630 5629 5628 5626 5624 5623 5621 5620 5619 5619 5619 5620 5622 5623 5625 5627
5638 5634 5631 5627 5625 5622 5621 5620 5620 5620 5621 5621 5620 5620 5621 5621 5622 5623 5624 5624 5624 5624 5623 5622 5621 5621 5620 5619 5618 5617 5615 5613 5611 5610 5609 5608 5608 5608 5608 5610 5612 5614 5616
5633 5630 5626 5622 5619 5617 5615 5614 5613 5613 5613 5613 5613 5613 5613 5612 5613 5613 5614 5613 5612 5611 5611 5611 5610 5609 5608 5608 5608 5607 5604 5601 5599 5598 5597 5598 5597 5597 5598 5599 5601 5603 5605
5632 5628 5624 5620 5616 5613 5611 5609 5609 5608 5608 5607 5607 5607 5606 5605 5605 5605 5604 5603 5602 5602 5601 5600 5600 5598 5596 5596 5596 5595 5593 5590 5588 5586 5585 5585 5585 5585 5586 5588 5590 5592 5593
5630 5626 5622 5618 5614 5611 5607 5605 5604 5604 5603 5602 5601 5601 5600 5599 5598 5597 5596 5595 5594 5593 5592 5590 5589 5588 5586 5586 5586 5585 5583 5581 5578 5575 5573 5572 5572 5572 5572 5574 5577 5579 5581
5629 5624 5620 5616 5612 5608 5605 5602 5600 5599 5598 5596 5596 5595 5595 5593 5592 5590 5589 5589 5587 5585 5583 5581 5580 5578 5576 5576 5576 5576 5574 5571 5568 5565 5563 5561 5560 5559 5559 5561 5562 5565 5568
5627 5622 5618 5613 5609 5605 5601 5598 5596 5594 5593 5593 5592 5591 5590 5588 5587 5585 5584 5582 5581 5578 5576 5573 5571 5570 5568 5567 5567 5566 5564 5561 5558 5555 5552 5549 5547 5546 5546 5547 5547 5549 5552
5626 5621 5616 5611 5607 5603 5599 5595 5593 5591 5591 5589 5587 5585 5584 5583 5582 5580 5578 5577 5575 5572 5569 5567 5564 5562 5560 5559 5558 5556 5553 5549 5546 5543 5540 5537 5534 5533 5533 5533 5533 5532 5536
5623 5618 5613 5609 5606 5602 5598 5594 5592 5591 5589 5586 5584 5582 5580 5580 5578 5576 5574 5572 5570 5567 5563 5561 5558 5555 5553 5551 5548 5545 5542 5539 5535 5531 5527 5524 5522 5521 5520 5520 5519 5521 5524
5621 5617 5612 5608 5604 5600 5597 5594 5592 5589 5587 5584 5582 5579 5577 5576 5574 5573 5570 5567 5564 5562 5558 5556 5553 5549 5546 5543 5540 5537 5533 5529 5525 5520 5517 5515 5512 5511 5509 5508 5508 5509 5511
5618 5615 5610 5606 5603 5599 5597 5595 5592 5589 5586 5582 5579 5576 5574 5571 5569 5568 5567 5564 5561 5558 5555 5552 5548 5545 5541 5537 5534 5529 5525 5521 5516 5512 5509 5506 5503 5501 5499 5497 5497 5497 5497
5616 5613 5609 5607 5604 5600 5597 5594 5591 5587 5584 5580 5576 5573 5571 5568 5566 5564 5562 5560 5558 5557 5553 5550 5546 5542 5538 5533 5528 5523 5518 5513 5509 5505 5502 5500 5496 5493 5490 5488 5486 5486 5486
5615 5611 5608 5606 5603 5599 5596 5593 5590 5587 5583 5578 5574 5571 5568 5565 5563 5560 5556 5555 5554 5552 5550 5547 5543 5539 5535 5529 5524 5519 5513 5509 5504 5500 5496 5492 5489 5485 5482 5479 5478 5477 5476